Year,Month,Day,Hour,Minute,Value (Times are PST for temperature in C)
2008,10,22,00,00,9.50
2008,10,22,00,01,9.50
2008,10,22,00,02,9.50
2008,10,22,00,03,9.50
2008,10,22,00,04,9.50
2008,10,22,00,05,9.50
2008,10,22,00,06,9.50
2008,10,22,00,07,9.50
2008,10,22,00,08,9.50
2008,10,22,00,09,9.50
2008,10,22,00,10,9.50
2008,10,22,00,11,9.50
2008,10,22,00,12,9.50
2008,10,22,00,13,9.40
2008,10,22,00,14,9.40
2008,10,22,00,15,9.50
2008,10,22,00,16,9.40
2008,10,22,00,17,9.40
2008,10,22,00,18,9.40
2008,10,22,00,19,9.40
2008,10,22,00,20,9.40
2008,10,22,00,21,9.40
2008,10,22,00,22,9.40
2008,10,22,00,23,9.40
2008,10,22,00,24,9.40
2008,10,22,00,25,9.40
2008,10,22,00,26,9.40
2008,10,22,00,27,9.40
2008,10,22,00,28,9.40
2008,10,22,00,29,9.40
2008,10,22,00,30,9.40
2008,10,22,00,31,9.40
2008,10,22,00,32,9.40
2008,10,22,00,33,9.40
2008,10,22,00,34,9.40
2008,10,22,00,35,9.40
2008,10,22,00,36,9.40
2008,10,22,00,37,9.40
2008,10,22,00,38,9.40
2008,10,22,00,39,9.40
2008,10,22,00,40,9.40
2008,10,22,00,41,9.40
2008,10,22,00,42,9.40
2008,10,22,00,43,9.40
2008,10,22,00,44,9.40
2008,10,22,00,45,9.40
2008,10,22,00,46,9.40
2008,10,22,00,47,9.40
2008,10,22,00,48,9.40
2008,10,22,00,49,9.40
2008,10,22,00,50,9.40
2008,10,22,00,51,9.40
2008,10,22,00,52,9.40
2008,10,22,00,53,9.40
2008,10,22,00,54,9.40
2008,10,22,00,55,9.40
2008,10,22,00,56,9.40
2008,10,22,00,57,9.40
2008,10,22,00,58,9.40
2008,10,22,00,59,9.40
2008,10,22,01,00,9.40
2008,10,22,01,01,9.40
2008,10,22,01,02,9.40
2008,10,22,01,03,9.40
2008,10,22,01,04,9.40
2008,10,22,01,05,9.40
2008,10,22,01,06,9.40
2008,10,22,01,07,9.40
2008,10,22,01,08,9.40
2008,10,22,01,09,9.40
2008,10,22,01,10,9.40
2008,10,22,01,11,9.40
2008,10,22,01,12,9.40
2008,10,22,01,13,9.40
2008,10,22,01,14,9.40
2008,10,22,01,15,9.40
2008,10,22,01,16,9.40
2008,10,22,01,17,9.40
2008,10,22,01,18,9.40
2008,10,22,01,19,9.40
2008,10,22,01,20,9.40
2008,10,22,01,21,9.40
2008,10,22,01,22,9.40
2008,10,22,01,23,9.40
2008,10,22,01,24,9.40
2008,10,22,01,25,9.40
2008,10,22,01,26,9.40
2008,10,22,01,27,9.40
2008,10,22,01,28,9.40
2008,10,22,01,29,9.40
2008,10,22,01,30,9.40
2008,10,22,01,31,9.40
2008,10,22,01,32,9.40
2008,10,22,01,33,9.40
2008,10,22,01,34,9.40
2008,10,22,01,35,9.40
2008,10,22,01,36,9.40
2008,10,22,01,37,9.40
2008,10,22,01,38,9.40
2008,10,22,01,39,9.40
2008,10,22,01,40,9.40
2008,10,22,01,41,9.40
2008,10,22,01,42,9.40
2008,10,22,01,43,9.40
2008,10,22,01,44,9.40
2008,10,22,01,45,9.40
2008,10,22,01,46,9.40
2008,10,22,01,47,9.40
2008,10,22,01,48,9.40
2008,10,22,01,49,9.40
2008,10,22,01,50,9.40
2008,10,22,01,51,9.40
2008,10,22,01,52,9.40
2008,10,22,01,53,9.40
2008,10,22,01,54,9.40
2008,10,22,01,55,9.40
2008,10,22,01,56,9.40
2008,10,22,01,57,9.40
2008,10,22,01,58,9.40
2008,10,22,01,59,9.40
2008,10,22,02,00,9.40
2008,10,22,02,01,9.40
2008,10,22,02,02,9.40
2008,10,22,02,03,9.40
2008,10,22,02,04,9.40
2008,10,22,02,05,9.40
2008,10,22,02,06,9.40
2008,10,22,02,07,9.40
2008,10,22,02,08,9.40
2008,10,22,02,09,9.40
2008,10,22,02,10,9.40
2008,10,22,02,11,9.40
2008,10,22,02,12,9.40
2008,10,22,02,13,9.40
2008,10,22,02,14,9.50
2008,10,22,02,15,9.40
2008,10,22,02,16,9.40
2008,10,22,02,17,9.40
2008,10,22,02,18,9.40
2008,10,22,02,19,9.40
2008,10,22,02,20,9.40
2008,10,22,02,21,9.40
2008,10,22,02,22,9.40
2008,10,22,02,23,9.40
2008,10,22,02,24,9.40
2008,10,22,02,25,9.40
2008,10,22,02,26,9.30
2008,10,22,02,27,9.30
2008,10,22,02,28,9.30
2008,10,22,02,29,9.30
2008,10,22,02,30,9.30
2008,10,22,02,31,9.30
2008,10,22,02,32,9.20
2008,10,22,02,33,9.20
2008,10,22,02,34,9.20
2008,10,22,02,35,9.20
2008,10,22,02,36,9.10
2008,10,22,02,37,9.10
2008,10,22,02,38,9.10
2008,10,22,02,39,9.10
2008,10,22,02,40,9.00
2008,10,22,02,41,9.00
2008,10,22,02,42,9.00
2008,10,22,02,43,8.90
2008,10,22,02,44,8.90
2008,10,22,02,45,8.90
2008,10,22,02,46,8.90
2008,10,22,02,47,8.80
2008,10,22,02,48,8.80
2008,10,22,02,49,8.80
2008,10,22,02,50,8.80
2008,10,22,02,51,8.70
2008,10,22,02,52,8.70
2008,10,22,02,53,8.70
2008,10,22,02,54,8.70
2008,10,22,02,55,8.70
2008,10,22,02,56,8.70
2008,10,22,02,57,8.60
2008,10,22,02,58,8.60
2008,10,22,02,59,8.60
2008,10,22,03,00,8.60
2008,10,22,03,01,8.60
2008,10,22,03,02,8.50
2008,10,22,03,03,8.50
2008,10,22,03,04,8.50
2008,10,22,03,05,8.50
2008,10,22,03,06,8.40
2008,10,22,03,07,8.40
2008,10,22,03,08,8.40
2008,10,22,03,09,8.40
2008,10,22,03,10,8.30
2008,10,22,03,11,8.30
2008,10,22,03,12,8.30
2008,10,22,03,13,8.30
2008,10,22,03,14,8.30
2008,10,22,03,15,8.30
2008,10,22,03,16,8.30
2008,10,22,03,17,8.30
2008,10,22,03,18,8.30
2008,10,22,03,19,8.30
2008,10,22,03,20,8.30
2008,10,22,03,21,8.30
2008,10,22,03,22,8.30
2008,10,22,03,23,8.30
2008,10,22,03,24,8.30
2008,10,22,03,25,8.30
2008,10,22,03,26,8.30
2008,10,22,03,27,8.30
2008,10,22,03,28,8.30
2008,10,22,03,29,8.40
2008,10,22,03,30,8.40
2008,10,22,03,31,8.40
2008,10,22,03,32,8.40
2008,10,22,03,33,8.40
2008,10,22,03,34,8.40
2008,10,22,03,35,8.40
2008,10,22,03,36,8.40
2008,10,22,03,37,8.40
2008,10,22,03,38,8.40
2008,10,22,03,39,8.40
2008,10,22,03,40,8.40
2008,10,22,03,41,8.40
2008,10,22,03,42,8.40
2008,10,22,03,43,8.40
2008,10,22,03,44,8.40
2008,10,22,03,45,8.40
2008,10,22,03,46,8.40
2008,10,22,03,47,8.40
2008,10,22,03,48,8.30
2008,10,22,03,49,8.30
2008,10,22,03,50,8.30
2008,10,22,03,51,8.30
2008,10,22,03,52,8.30
2008,10,22,03,53,8.30
2008,10,22,03,54,8.30
2008,10,22,03,55,8.30
2008,10,22,03,56,8.30
2008,10,22,03,57,8.30
2008,10,22,03,58,8.30
2008,10,22,03,59,8.30
2008,10,22,04,00,8.30
2008,10,22,04,01,8.20
2008,10,22,04,02,8.20
2008,10,22,04,03,8.20
2008,10,22,04,04,8.20
2008,10,22,04,05,8.30
2008,10,22,04,06,8.20
2008,10,22,04,29,8.00
2008,10,22,04,49,7.70
2008,10,22,05,01,7.30
2008,10,22,05,18,7.20
2008,10,22,05,31,7.20
2008,10,22,05,46,7.30
2008,10,22,05,57,7.50
2008,10,22,06,10,7.60
2008,10,22,06,23,7.60
2008,10,22,06,35,7.60
2008,10,22,06,48,7.80
2008,10,22,07,02,7.70
2008,10,22,07,13,7.70
2008,10,22,07,23,7.60
2008,10,22,07,35,7.60
2008,10,22,07,47,7.50
2008,10,22,07,58,7.50
2008,10,22,08,09,7.80
2008,10,22,08,24,8.30
2008,10,22,08,36,8.70
2008,10,22,08,50,9.00
2008,10,22,09,01,9.20
2008,10,22,09,16,9.60
2008,10,22,09,30,10.10
2008,10,22,09,42,10.20
2008,10,22,09,55,10.50
2008,10,22,10,02,10.60
2008,10,22,10,03,10.60
2008,10,22,10,04,10.50
2008,10,22,10,05,10.50
2008,10,22,10,06,10.40
2008,10,22,10,07,10.40
2008,10,22,10,08,10.40
2008,10,22,10,09,10.50
2008,10,22,10,10,10.50
2008,10,22,10,11,10.50
2008,10,22,10,12,10.50
2008,10,22,10,13,10.60
2008,10,22,10,14,10.60
2008,10,22,10,15,10.60
2008,10,22,10,16,10.60
2008,10,22,10,17,10.60
2008,10,22,10,18,10.60
2008,10,22,10,19,10.60
2008,10,22,10,20,10.60
2008,10,22,10,21,10.60
2008,10,22,10,22,10.60
2008,10,22,10,23,10.60
2008,10,22,10,24,10.60
2008,10,22,10,25,10.70
2008,10,22,10,26,10.70
2008,10,22,10,27,10.70
2008,10,22,10,28,10.80
2008,10,22,10,29,10.80
2008,10,22,10,30,10.80
2008,10,22,10,31,10.90
2008,10,22,10,32,10.90
2008,10,22,10,33,11.00
2008,10,22,10,34,11.10
2008,10,22,10,35,11.10
2008,10,22,10,36,11.20
2008,10,22,10,37,11.20
2008,10,22,10,38,11.10
2008,10,22,10,39,11.10
2008,10,22,10,40,11.10
2008,10,22,10,41,11.10
2008,10,22,10,42,11.10
2008,10,22,10,43,11.20
2008,10,22,10,44,11.20
2008,10,22,10,45,11.30
2008,10,22,10,46,11.30
2008,10,22,10,47,11.30
2008,10,22,10,48,11.40
2008,10,22,10,49,11.40
2008,10,22,10,50,11.40
2008,10,22,10,51,11.40
2008,10,22,10,52,11.40
2008,10,22,10,53,11.30
2008,10,22,10,54,11.30
2008,10,22,10,55,11.20
2008,10,22,10,56,11.20
2008,10,22,10,57,11.10
2008,10,22,10,58,11.10
2008,10,22,10,59,11.10
2008,10,22,11,00,11.20
2008,10,22,11,01,11.20
2008,10,22,11,02,11.20
2008,10,22,11,03,11.20
2008,10,22,11,04,11.20
2008,10,22,11,05,11.20
2008,10,22,11,06,11.20
2008,10,22,11,07,11.30
2008,10,22,11,08,11.30
2008,10,22,11,09,11.40
2008,10,22,11,10,11.40
2008,10,22,11,11,11.40
2008,10,22,11,12,11.50
2008,10,22,11,13,11.60
2008,10,22,11,14,11.70
2008,10,22,11,15,11.70
2008,10,22,11,16,11.80
2008,10,22,11,17,11.80
2008,10,22,11,18,11.80
2008,10,22,11,19,11.80
2008,10,22,11,20,11.80
2008,10,22,11,21,11.80
2008,10,22,11,22,11.80
2008,10,22,11,23,11.80
2008,10,22,11,24,11.80
2008,10,22,11,25,11.80
2008,10,22,11,26,11.70
2008,10,22,11,27,11.70
2008,10,22,11,28,11.60
2008,10,22,11,29,11.60
2008,10,22,11,30,11.60
2008,10,22,11,31,11.60
2008,10,22,11,32,11.70
2008,10,22,11,33,11.70
2008,10,22,11,34,11.60
2008,10,22,11,35,11.60
2008,10,22,11,36,11.50
2008,10,22,11,37,11.50
2008,10,22,11,38,11.50
2008,10,22,11,39,11.50
2008,10,22,11,40,11.60
2008,10,22,11,41,11.60
2008,10,22,11,42,11.50
2008,10,22,11,43,11.40
2008,10,22,11,44,11.40
2008,10,22,11,45,11.30
2008,10,22,11,46,11.30
2008,10,22,11,47,11.30
2008,10,22,11,48,11.30
2008,10,22,11,49,11.20
2008,10,22,11,50,11.20
2008,10,22,11,51,11.20
2008,10,22,11,52,11.20
2008,10,22,11,53,11.20
2008,10,22,11,54,11.30
2008,10,22,11,55,11.30
2008,10,22,11,56,11.30
2008,10,22,11,57,11.30
2008,10,22,11,58,11.30
2008,10,22,11,59,11.30
2008,10,22,12,00,11.40
2008,10,22,12,01,11.50
2008,10,22,12,02,11.60
2008,10,22,12,03,11.70
2008,10,22,12,04,11.80
2008,10,22,12,05,11.90
2008,10,22,12,06,12.00
2008,10,22,12,07,12.00
2008,10,22,12,08,12.10
2008,10,22,12,09,12.10
2008,10,22,12,10,12.20
2008,10,22,12,11,12.20
2008,10,22,12,12,12.20
2008,10,22,12,13,12.30
2008,10,22,12,14,12.30
2008,10,22,12,15,12.40
2008,10,22,12,16,12.50
2008,10,22,12,17,12.50
2008,10,22,12,18,12.60
2008,10,22,12,19,12.60
2008,10,22,12,20,12.70
2008,10,22,12,21,12.70
2008,10,22,12,22,12.70
2008,10,22,12,23,12.70
2008,10,22,12,24,12.70
2008,10,22,12,25,12.70
2008,10,22,12,26,12.70
2008,10,22,12,27,12.70
2008,10,22,12,28,12.80
2008,10,22,12,29,12.80
2008,10,22,12,30,12.80
2008,10,22,12,31,12.80
2008,10,22,12,32,12.80
2008,10,22,12,33,12.80
2008,10,22,12,34,12.80
2008,10,22,12,35,12.80
2008,10,22,12,36,12.90
2008,10,22,12,37,13.00
2008,10,22,12,38,13.10
2008,10,22,12,39,13.10
2008,10,22,12,40,13.20
2008,10,22,12,41,13.20
2008,10,22,12,42,13.30
2008,10,22,12,43,13.20
2008,10,22,12,44,13.20
2008,10,22,12,45,13.00
2008,10,22,12,46,12.90
2008,10,22,12,47,12.80
2008,10,22,12,48,12.60
2008,10,22,12,49,12.40
2008,10,22,12,50,12.30
2008,10,22,12,51,12.20
2008,10,22,12,52,12.10
2008,10,22,12,53,12.00
2008,10,22,12,54,11.90
2008,10,22,12,55,11.90
2008,10,22,12,56,11.80
2008,10,22,12,57,11.80
2008,10,22,12,58,11.70
2008,10,22,12,59,11.70
2008,10,22,13,00,11.70
2008,10,22,13,01,11.70
2008,10,22,13,02,11.60
2008,10,22,13,03,11.60
2008,10,22,13,04,11.60
2008,10,22,13,05,11.60
2008,10,22,13,06,11.70
2008,10,22,13,07,11.70
2008,10,22,13,08,11.80
2008,10,22,13,09,11.90
2008,10,22,13,10,12.00
2008,10,22,13,11,12.20
2008,10,22,13,12,12.40
2008,10,22,13,13,12.50
2008,10,22,13,14,12.70
2008,10,22,13,15,12.80
2008,10,22,13,16,12.90
2008,10,22,13,17,13.00
2008,10,22,13,18,13.10
2008,10,22,13,19,13.30
2008,10,22,13,20,13.40
2008,10,22,13,21,13.50
2008,10,22,13,22,13.50
2008,10,22,13,23,13.60
2008,10,22,13,24,13.60
2008,10,22,13,25,13.50
2008,10,22,13,26,13.30
2008,10,22,13,27,13.10
2008,10,22,13,28,13.00
2008,10,22,13,29,12.80
2008,10,22,13,30,12.70
2008,10,22,13,31,12.60
2008,10,22,13,32,12.60
2008,10,22,13,33,12.60
2008,10,22,13,34,12.60
2008,10,22,13,35,12.60
2008,10,22,13,36,12.70
2008,10,22,13,37,12.70
2008,10,22,13,38,12.70
2008,10,22,13,39,12.70
2008,10,22,13,40,12.60
2008,10,22,13,41,12.60
2008,10,22,13,42,12.60
2008,10,22,13,43,12.60
2008,10,22,13,44,12.60
2008,10,22,13,45,12.70
2008,10,22,13,46,12.70
2008,10,22,13,47,12.70
2008,10,22,13,48,12.70
2008,10,22,13,49,12.80
2008,10,22,13,50,12.80
2008,10,22,13,51,12.90
2008,10,22,13,52,12.90
2008,10,22,13,53,13.00
2008,10,22,13,54,13.00
2008,10,22,13,55,13.10
2008,10,22,13,56,13.20
2008,10,22,13,57,13.20
2008,10,22,13,58,13.30
2008,10,22,13,59,13.40
2008,10,22,14,00,13.50
2008,10,22,14,01,13.60
2008,10,22,14,02,13.70
2008,10,22,14,03,13.70
2008,10,22,14,04,13.80
2008,10,22,14,05,13.90
2008,10,22,14,06,14.00
2008,10,22,14,07,14.10
2008,10,22,14,08,14.10
2008,10,22,14,09,14.20
2008,10,22,14,10,14.10
2008,10,22,14,11,14.10
2008,10,22,14,12,14.00
2008,10,22,14,13,13.90
2008,10,22,14,14,13.90
2008,10,22,14,15,13.90
2008,10,22,14,16,14.00
2008,10,22,14,17,14.00
2008,10,22,14,18,14.10
2008,10,22,14,19,14.10
2008,10,22,14,20,14.10
2008,10,22,14,21,14.10
2008,10,22,14,22,14.10
2008,10,22,14,23,14.10
2008,10,22,14,24,14.10
2008,10,22,14,25,14.10
2008,10,22,14,26,14.20
2008,10,22,14,27,14.20
2008,10,22,14,28,14.30
2008,10,22,14,29,14.30
2008,10,22,14,30,14.30
2008,10,22,14,31,14.40
2008,10,22,14,32,14.40
2008,10,22,14,33,14.30
2008,10,22,14,34,14.30
2008,10,22,14,35,14.30
2008,10,22,14,36,14.30
2008,10,22,14,37,14.30
2008,10,22,14,38,14.30
2008,10,22,14,39,14.40
2008,10,22,14,40,14.50
2008,10,22,14,41,14.50
2008,10,22,14,42,14.50
2008,10,22,14,43,14.40
2008,10,22,14,44,14.30
2008,10,22,14,45,14.30
2008,10,22,14,46,14.30
2008,10,22,14,47,14.30
2008,10,22,14,48,14.40
2008,10,22,14,49,14.30
2008,10,22,14,50,14.30
2008,10,22,14,51,14.30
2008,10,22,14,52,14.20
2008,10,22,14,53,14.20
2008,10,22,14,54,14.20
2008,10,22,14,55,14.20
2008,10,22,14,56,14.20
2008,10,22,14,57,14.10
2008,10,22,14,58,14.10
2008,10,22,14,59,14.10
2008,10,22,15,00,14.20
2008,10,22,15,01,14.20
2008,10,22,15,02,14.30
2008,10,22,15,03,14.30
2008,10,22,15,04,14.30
2008,10,22,15,05,14.30
2008,10,22,15,06,14.30
2008,10,22,15,07,14.40
2008,10,22,15,08,14.40
2008,10,22,15,09,14.40
2008,10,22,15,10,14.40
2008,10,22,15,11,14.40
2008,10,22,15,12,14.40
2008,10,22,15,13,14.40
2008,10,22,15,14,14.30
2008,10,22,15,15,14.30
2008,10,22,15,16,14.30
2008,10,22,15,17,14.30
2008,10,22,15,18,14.20
2008,10,22,15,19,14.10
2008,10,22,15,20,14.00
2008,10,22,15,21,13.90
2008,10,22,15,22,13.80
2008,10,22,15,23,13.80
2008,10,22,15,24,13.80
2008,10,22,15,25,13.70
2008,10,22,15,26,13.70
2008,10,22,15,27,13.70
2008,10,22,15,28,13.70
2008,10,22,15,29,13.70
2008,10,22,15,30,13.70
2008,10,22,15,31,13.70
2008,10,22,15,32,13.70
2008,10,22,15,33,13.60
2008,10,22,15,34,13.60
2008,10,22,15,35,13.60
2008,10,22,15,36,13.60
2008,10,22,15,37,13.50
2008,10,22,15,38,13.50
2008,10,22,15,39,13.50
2008,10,22,15,40,13.50
2008,10,22,15,41,13.50
2008,10,22,15,42,13.50
2008,10,22,15,43,13.40
2008,10,22,15,44,13.40
2008,10,22,15,45,13.40
2008,10,22,15,46,13.40
2008,10,22,15,47,13.40
2008,10,22,15,48,13.40
2008,10,22,15,49,13.40
2008,10,22,15,50,13.40
2008,10,22,15,51,13.40
2008,10,22,15,52,13.40
2008,10,22,15,53,13.40
2008,10,22,15,54,13.40
2008,10,22,15,55,13.40
2008,10,22,15,56,13.40
2008,10,22,15,57,13.40
2008,10,22,15,58,13.40
2008,10,22,15,59,13.40
2008,10,22,16,00,13.40
2008,10,22,16,01,13.40
2008,10,22,16,02,13.40
2008,10,22,16,03,13.30
2008,10,22,16,04,13.30
2008,10,22,16,05,13.30
2008,10,22,16,06,13.20
2008,10,22,16,07,13.20
2008,10,22,16,08,13.20
2008,10,22,16,09,13.20
2008,10,22,16,10,13.20
2008,10,22,16,11,13.20
2008,10,22,16,12,13.20
2008,10,22,16,13,13.10
2008,10,22,16,14,13.10
2008,10,22,16,15,13.10
2008,10,22,16,16,13.10
2008,10,22,16,17,13.10
2008,10,22,16,18,13.10
2008,10,22,16,19,13.10
2008,10,22,16,20,13.10
2008,10,22,16,21,13.10
2008,10,22,16,22,13.10
2008,10,22,16,23,13.00
2008,10,22,16,24,13.00
2008,10,22,16,25,13.00
2008,10,22,16,26,12.90
2008,10,22,16,27,12.90
2008,10,22,16,28,13.00
2008,10,22,16,29,13.00
2008,10,22,16,30,13.00
2008,10,22,16,31,13.00
2008,10,22,16,32,12.90
2008,10,22,16,33,12.90
2008,10,22,16,34,12.90
2008,10,22,16,35,12.90
2008,10,22,16,36,12.90
2008,10,22,16,37,12.90
2008,10,22,16,38,12.90
2008,10,22,16,39,12.90
2008,10,22,16,40,12.90
2008,10,22,16,41,12.90
2008,10,22,16,42,12.90
2008,10,22,16,43,12.90
2008,10,22,16,44,12.90
2008,10,22,16,45,12.90
2008,10,22,16,46,12.90
2008,10,22,16,47,12.90
2008,10,22,16,48,12.90
2008,10,22,16,49,12.90
2008,10,22,16,50,13.00
2008,10,22,16,51,13.10
2008,10,22,16,52,13.20
2008,10,22,16,53,13.30
2008,10,22,16,54,13.40
2008,10,22,16,55,13.50
2008,10,22,16,56,13.60
2008,10,22,16,57,13.70
2008,10,22,16,58,13.70
2008,10,22,16,59,13.80
2008,10,22,17,00,13.90
2008,10,22,17,01,14.00
2008,10,22,17,02,14.00
2008,10,22,17,03,14.00
2008,10,22,17,04,14.00
2008,10,22,17,05,14.00
2008,10,22,17,06,14.00
2008,10,22,17,07,14.00
2008,10,22,17,08,14.00
2008,10,22,17,09,13.90
2008,10,22,17,10,13.90
2008,10,22,17,11,13.90
2008,10,22,17,12,13.90
2008,10,22,17,13,14.00
2008,10,22,17,14,14.00
2008,10,22,17,15,14.00
2008,10,22,17,16,14.00
2008,10,22,17,17,13.90
2008,10,22,17,18,13.80
2008,10,22,17,19,13.60
2008,10,22,17,20,13.40
2008,10,22,17,21,13.30
2008,10,22,17,22,13.20
2008,10,22,17,23,13.10
2008,10,22,17,24,13.00
2008,10,22,17,25,13.00
2008,10,22,17,26,12.90
2008,10,22,17,27,12.80
2008,10,22,17,28,12.80
2008,10,22,17,29,12.70
2008,10,22,17,30,12.70
2008,10,22,17,31,12.70
2008,10,22,17,32,12.70
2008,10,22,17,33,12.70
2008,10,22,17,34,12.70
2008,10,22,17,35,12.70
2008,10,22,17,36,12.60
2008,10,22,17,37,12.60
2008,10,22,17,38,12.60
2008,10,22,17,39,12.50
2008,10,22,17,40,12.50
2008,10,22,17,41,12.40
2008,10,22,17,42,12.40
2008,10,22,17,43,12.40
2008,10,22,17,44,12.30
2008,10,22,17,45,12.30
2008,10,22,17,46,12.30
2008,10,22,17,47,12.30
2008,10,22,17,48,12.20
2008,10,22,17,49,12.20
2008,10,22,17,50,12.10
2008,10,22,17,51,12.00
2008,10,22,17,52,11.80
2008,10,22,17,53,11.70
2008,10,22,17,54,11.60
2008,10,22,17,55,11.50
2008,10,22,17,56,11.40
2008,10,22,17,57,11.30
2008,10,22,17,58,11.10
2008,10,22,17,59,11.00
2008,10,22,18,00,10.90
2008,10,22,18,01,10.90
2008,10,22,18,02,10.80
2008,10,22,18,03,10.70
2008,10,22,18,04,10.60
2008,10,22,18,05,10.50
2008,10,22,18,06,10.40
2008,10,22,18,07,10.40
2008,10,22,18,08,10.40
2008,10,22,18,09,10.30
2008,10,22,18,10,10.30
2008,10,22,18,11,10.20
2008,10,22,18,12,10.20
2008,10,22,18,13,10.20
2008,10,22,18,14,10.10
2008,10,22,18,15,10.10
2008,10,22,18,16,10.10
2008,10,22,18,17,10.10
2008,10,22,18,18,10.00
2008,10,22,18,19,10.00
2008,10,22,18,20,9.90
2008,10,22,18,21,9.90
2008,10,22,18,22,9.90
2008,10,22,18,23,9.80
2008,10,22,18,24,9.80
2008,10,22,18,25,9.80
2008,10,22,18,26,9.80
2008,10,22,18,27,9.80
2008,10,22,18,28,9.70
2008,10,22,18,29,9.70
2008,10,22,18,30,9.70
2008,10,22,18,31,9.70
2008,10,22,18,32,9.60
2008,10,22,18,33,9.60
2008,10,22,18,34,9.60
2008,10,22,18,35,9.60
2008,10,22,18,36,9.60
2008,10,22,18,37,9.60
2008,10,22,18,38,9.60
2008,10,22,18,39,9.50
2008,10,22,18,40,9.50
2008,10,22,18,41,9.50
2008,10,22,18,42,9.50
2008,10,22,18,43,9.50
2008,10,22,18,44,9.50
2008,10,22,18,45,9.50
2008,10,22,18,46,9.50
2008,10,22,18,47,9.50
2008,10,22,18,48,9.50
2008,10,22,18,49,9.50
2008,10,22,18,50,9.50
2008,10,22,18,51,9.40
2008,10,22,18,52,9.40
2008,10,22,18,53,9.40
2008,10,22,18,54,9.40
2008,10,22,18,55,9.40
2008,10,22,18,56,9.40
2008,10,22,18,57,9.40
2008,10,22,18,58,9.40
2008,10,22,18,59,9.40
2008,10,22,19,00,9.30
2008,10,22,19,01,9.30
2008,10,22,19,02,9.30
2008,10,22,19,03,9.30
2008,10,22,19,04,9.30
2008,10,22,19,05,9.30
2008,10,22,19,06,9.30
2008,10,22,19,07,9.30
2008,10,22,19,08,9.30
2008,10,22,19,09,9.30
2008,10,22,19,10,9.30
2008,10,22,19,11,9.30
2008,10,22,19,12,9.30
2008,10,22,19,13,9.30
2008,10,22,19,14,9.30
2008,10,22,19,15,9.30
2008,10,22,19,16,9.30
2008,10,22,19,17,9.30
2008,10,22,19,18,9.30
2008,10,22,19,19,9.30
2008,10,22,19,20,9.30
2008,10,22,19,21,9.30
2008,10,22,19,22,9.30
2008,10,22,19,23,9.30
2008,10,22,19,24,9.30
2008,10,22,19,25,9.30
2008,10,22,19,26,9.30
2008,10,22,19,27,9.30
2008,10,22,19,28,9.30
2008,10,22,19,29,9.20
2008,10,22,19,30,9.20
2008,10,22,19,31,9.20
2008,10,22,19,32,9.20
2008,10,22,19,33,9.20
2008,10,22,19,34,9.20
2008,10,22,19,35,9.20
2008,10,22,19,36,9.20
2008,10,22,19,37,9.20
2008,10,22,19,38,9.10
2008,10,22,19,39,9.10
2008,10,22,19,40,9.10
2008,10,22,19,41,9.10
2008,10,22,19,42,9.10
2008,10,22,19,43,9.00
2008,10,22,19,44,9.00
2008,10,22,19,45,9.00
2008,10,22,19,46,8.90
2008,10,22,19,47,8.90
2008,10,22,19,48,8.80
2008,10,22,19,49,8.80
2008,10,22,19,50,8.70
2008,10,22,19,51,8.70
2008,10,22,19,52,8.70
2008,10,22,19,53,8.70
2008,10,22,19,54,8.70
2008,10,22,19,55,8.70
2008,10,22,19,56,8.70
2008,10,22,19,57,8.70
2008,10,22,19,58,8.70
2008,10,22,19,59,8.70
2008,10,22,20,00,8.70
2008,10,22,20,01,8.70
2008,10,22,20,02,8.60
2008,10,22,20,03,8.60
2008,10,22,20,04,8.60
2008,10,22,20,05,8.60
2008,10,22,20,06,8.50
2008,10,22,20,07,8.50
2008,10,22,20,08,8.50
2008,10,22,20,09,8.40
2008,10,22,20,10,8.40
2008,10,22,20,11,8.40
2008,10,22,20,12,8.40
2008,10,22,20,13,8.30
2008,10,22,20,14,8.30
2008,10,22,20,15,8.30
2008,10,22,20,16,8.30
2008,10,22,20,17,8.20
2008,10,22,20,18,8.20
2008,10,22,20,19,8.20
2008,10,22,20,20,8.20
2008,10,22,20,21,8.10
2008,10,22,20,22,8.10
2008,10,22,20,23,8.10
2008,10,22,20,24,8.10
2008,10,22,20,25,8.00
2008,10,22,20,26,8.00
2008,10,22,20,27,8.00
2008,10,22,20,28,8.00
2008,10,22,20,29,8.00
2008,10,22,20,30,8.00
2008,10,22,20,31,8.00
2008,10,22,20,32,8.00
2008,10,22,20,33,8.00
2008,10,22,20,34,8.00
2008,10,22,20,35,8.00
2008,10,22,20,36,8.00
2008,10,22,20,37,8.00
2008,10,22,20,38,8.00
2008,10,22,20,39,8.00
2008,10,22,20,40,8.00
2008,10,22,20,41,8.00
2008,10,22,20,42,8.00
2008,10,22,20,43,8.00
2008,10,22,20,44,7.90
2008,10,22,20,45,7.90
2008,10,22,20,46,7.90
2008,10,22,20,47,7.90
2008,10,22,20,48,7.90
2008,10,22,20,49,7.90
2008,10,22,20,50,7.90
2008,10,22,20,51,7.90
2008,10,22,20,52,7.90
2008,10,22,20,53,7.90
2008,10,22,20,54,7.90
2008,10,22,20,55,7.90
2008,10,22,20,56,7.90
2008,10,22,20,57,8.00
2008,10,22,20,58,8.00
2008,10,22,20,59,8.10
2008,10,22,21,00,8.10
2008,10,22,21,01,8.20
2008,10,22,21,02,8.20
2008,10,22,21,03,8.20
2008,10,22,21,04,8.20
2008,10,22,21,05,8.20
2008,10,22,21,06,8.20
2008,10,22,21,07,8.20
2008,10,22,21,08,8.20
2008,10,22,21,09,8.20
2008,10,22,21,10,8.20
2008,10,22,21,11,8.20
2008,10,22,21,12,8.20
2008,10,22,21,13,8.20
2008,10,22,21,14,8.10
2008,10,22,21,15,8.10
2008,10,22,21,16,8.20
2008,10,22,21,17,8.20
2008,10,22,21,18,8.20
2008,10,22,21,19,8.20
2008,10,22,21,20,8.20
2008,10,22,21,21,8.30
2008,10,22,21,22,8.30
2008,10,22,21,23,8.40
2008,10,22,21,24,8.50
2008,10,22,21,25,8.60
2008,10,22,21,26,8.60
2008,10,22,21,27,8.60
2008,10,22,21,28,8.70
2008,10,22,21,29,8.70
2008,10,22,21,30,8.70
2008,10,22,21,31,8.80
2008,10,22,21,32,8.80
2008,10,22,21,33,8.80
2008,10,22,21,34,8.80
2008,10,22,21,35,8.80
2008,10,22,21,36,8.80
2008,10,22,21,37,8.80
2008,10,22,21,38,8.80
2008,10,22,21,39,8.80
2008,10,22,21,40,8.80
2008,10,22,21,41,8.90
2008,10,22,21,42,8.90
2008,10,22,21,43,8.90
2008,10,22,21,44,8.90
2008,10,22,21,45,8.90
2008,10,22,21,46,8.90
2008,10,22,21,47,8.90
2008,10,22,21,48,8.90
2008,10,22,21,49,8.90
2008,10,22,21,50,9.00
2008,10,22,21,51,9.00
2008,10,22,21,52,9.00
2008,10,22,21,53,9.00
2008,10,22,21,54,9.00
2008,10,22,21,55,9.00
2008,10,22,21,56,8.90
2008,10,22,21,57,8.90
2008,10,22,21,58,8.90
2008,10,22,21,59,8.80
2008,10,22,22,00,8.80
2008,10,22,22,01,8.80
2008,10,22,22,02,8.80
2008,10,22,22,03,8.80
2008,10,22,22,04,8.70
2008,10,22,22,05,8.70
2008,10,22,22,06,8.70
2008,10,22,22,07,8.60
2008,10,22,22,08,8.60
2008,10,22,22,09,8.60
2008,10,22,22,10,8.60
2008,10,22,22,11,8.60
2008,10,22,22,12,8.50
2008,10,22,22,13,8.50
2008,10,22,22,14,8.50
2008,10,22,22,15,8.60
2008,10,22,22,16,8.60
2008,10,22,22,17,8.60
2008,10,22,22,18,8.60
2008,10,22,22,19,8.60
2008,10,22,22,20,8.60
2008,10,22,22,21,8.60
2008,10,22,22,22,8.60
2008,10,22,22,23,8.60
2008,10,22,22,24,8.60
2008,10,22,22,25,8.60
2008,10,22,22,26,8.60
2008,10,22,22,27,8.50
2008,10,22,22,28,8.50
2008,10,22,22,29,8.50
2008,10,22,22,30,8.40
2008,10,22,22,31,8.40
2008,10,22,22,32,8.30
2008,10,22,22,33,8.30
2008,10,22,22,34,8.20
2008,10,22,22,35,8.20
2008,10,22,22,36,8.20
2008,10,22,22,37,8.20
2008,10,22,22,38,8.20
2008,10,22,22,39,8.20
2008,10,22,22,40,8.30
2008,10,22,22,41,8.30
2008,10,22,22,42,8.30
2008,10,22,22,43,8.40
2008,10,22,22,44,8.40
2008,10,22,22,45,8.50
2008,10,22,22,46,8.50
2008,10,22,22,47,8.60
2008,10,22,22,48,8.60
2008,10,22,22,49,8.70
2008,10,22,22,50,8.80
2008,10,22,22,51,8.80
2008,10,22,22,52,8.90
2008,10,22,22,53,9.00
2008,10,22,22,54,9.00
2008,10,22,22,55,9.10
2008,10,22,22,56,9.20
2008,10,22,22,57,9.30
2008,10,22,22,58,9.30
2008,10,22,22,59,9.40
2008,10,22,23,00,9.50
2008,10,22,23,01,9.60
2008,10,22,23,02,9.60
2008,10,22,23,03,9.70
2008,10,22,23,04,9.80
2008,10,22,23,05,9.80
2008,10,22,23,06,9.80
2008,10,22,23,07,9.90
2008,10,22,23,08,9.90
2008,10,22,23,09,9.90
2008,10,22,23,10,9.90
2008,10,22,23,11,9.90
2008,10,22,23,12,10.00